Total_Precipitation_Accumulation
2.00 2.00 1.88 1.87 1.93 1.95 2.05 2.16 2.15 2.03 1.98 1.83 1.42 1.16 1.17 1.32 1.49 1.30 1.25 1.15 1.04 0.97 0.89 0.90 0.92 1.01 1.10 1.21 1.40 1.57 1.64 1.66 1.67 1.64 1.69 1.83 1.90 1.98
1.78 1.82 1.79 1.77 1.87 1.85 1.91 2.05 2.17 2.21 2.03 1.80 1.60 1.29 1.29 1.22 1.34 1.29 1.27 1.18 1.00 0.86 0.76 0.74 0.77 0.86 0.94 0.99 1.07 1.19 1.24 1.25 1.29 1.34 1.36 1.37 1.41 1.49
1.47 1.51 1.57 1.67 1.82 1.82 1.83 1.87 2.08 2.28 2.17 2.03 1.89 1.74 1.61 1.47 1.28 1.26 1.27 1.19 0.99 0.83 0.68 0.63 0.67 0.71 0.75 0.84 0.93 1.03 1.10 1.14 1.15 1.18 1.21 1.23 1.24 1.27
1.42 1.51 1.50 1.63 1.76 1.72 1.79 1.85 2.03 2.28 2.35 2.47 2.48 2.21 1.93 1.71 1.58 1.40 1.12 1.02 1.01 0.86 0.70 0.61 0.59 0.62 0.64 0.69 0.76 0.89 1.01 1.07 1.10 1.12 1.12 1.13 1.18 1.23
1.45 1.51 1.44 1.49 1.56 1.59 1.68 1.82 1.97 2.13 2.31 2.38 2.48 2.31 2.12 1.83 1.86 1.62 1.33 1.24 0.98 0.92 0.82 0.67 0.61 0.60 0.61 0.66 0.72 0.78 0.86 0.96 1.00 1.10 1.17 1.16 1.16 1.20
1.42 1.40 1.32 1.32 1.40 1.51 1.55 1.73 1.90 2.04 2.15 2.16 2.25 2.32 2.35 2.29 2.26 2.03 1.83 1.60 1.29 1.00 0.96 0.79 0.72 0.67 0.64 0.63 0.66 0.74 0.84 0.95 1.00 1.05 1.13 1.19 1.23 1.27
1.31 1.20 1.05 1.05 1.12 1.19 1.24 1.51 1.72 1.86 1.98 2.06 2.16 2.34 2.45 2.59 2.44 2.30 2.16 2.01 1.72 1.45 1.42 1.12 0.99 0.84 0.70 0.66 0.66 0.68 0.74 0.88 0.98 1.06 1.11 1.15 1.22 1.30
1.24 1.24 1.09 0.94 0.89 0.95 0.97 1.12 1.37 1.54 1.74 1.98 2.12 2.34 2.44 2.42 2.55 2.51 2.41 2.25 2.07 1.82 1.79 1.72 1.56 1.40 1.13 0.85 0.78 0.69 0.63 0.72 0.87 0.98 1.09 1.18 1.23 1.29
1.23 1.27 1.08 0.95 0.94 0.87 0.92 0.99 1.03 1.10 1.22 1.57 1.85 1.98 2.01 2.04 2.29 2.43 2.43 2.34 2.27 2.10 2.11 2.14 1.99 1.75 1.37 1.15 1.03 0.84 0.72 0.67 0.73 0.82 0.89 1.00 1.12 1.22
1.05 1.10 1.12 1.12 1.03 0.98 0.95 0.97 0.93 0.94 0.98 1.04 1.20 1.36 1.56 1.75 1.96 2.21 2.46 2.41 2.38 2.32 2.27 2.37 2.22 2.06 1.69 1.36 1.15 0.92 0.82 0.80 0.81 0.83 0.86 0.88 0.95 1.06
1.12 1.13 1.17 1.22 1.18 0.99 0.93 0.98 1.01 1.05 0.97 0.98 0.96 1.04 1.16 1.29 1.46 1.72 2.01 2.31 2.54 2.55 2.36 2.40 2.33 2.31 2.22 1.80 1.37 1.12 0.90 0.82 0.80 0.80 0.82 0.84 0.86 0.93
1.42 1.40 1.27 1.14 1.10 0.95 0.93 1.01 0.99 0.99 0.92 0.91 0.89 0.87 0.90 1.03 1.15 1.34 1.57 1.86 2.12 2.28 2.24 2.34 2.46 2.71 2.80 2.32 1.74 1.30 1.08 1.01 0.90 0.80 0.79 0.79 0.82 0.76
1.36 1.34 1.22 1.00 0.89 0.84 0.80 0.84 0.88 0.82 0.84 0.91 0.98 1.00 1.00 1.03 1.08 1.16 1.40 1.57 1.68 1.64 1.64 1.96 2.14 2.39 2.69 2.59 2.31 1.92 1.59 1.31 1.09 0.95 0.91 0.92 0.92 0.86
1.46 1.41 1.25 1.07 0.94 0.86 0.72 0.70 0.71 0.68 0.74 0.87 0.95 0.98 0.99 1.00 1.07 1.17 1.33 1.50 1.65 1.59 1.54 1.74 1.91 2.09 2.15 2.12 2.11 2.13 2.08 1.88 1.59 1.33 1.14 1.18 1.14 1.16
1.27 1.39 1.26 1.00 0.86 0.79 0.76 0.68 0.59 0.58 0.69 0.77 0.84 0.89 0.90 0.95 1.05 1.20 1.39 1.50 1.52 1.48 1.40 1.54 1.72 1.87 1.95 1.88 1.80 1.81 1.90 1.86 1.78 1.71 1.64 1.51 1.36 1.29
1.13 1.13 1.10 0.98 0.82 0.82 0.84 0.74 0.64 0.68 0.72 0.71 0.77 0.85 0.89 0.96 1.07 1.15 1.27 1.43 1.54 1.46 1.42 1.52 1.67 1.81 1.80 1.76 1.69 1.59 1.65 1.76 1.82 1.91 1.95 1.87 1.73 1.63
1.07 1.13 1.10 1.13 1.03 0.99 1.01 0.96 0.90 0.92 0.88 0.82 0.83 0.86 0.91 0.97 1.02 1.12 1.23 1.31 1.41 1.43 1.42 1.49 1.59 1.71 1.69 1.66 1.63 1.51 1.49 1.49 1.64 1.89 2.08 2.05 1.85 1.72
0.95 1.09 1.21 1.23 1.21 1.21 1.21 1.19 1.17 1.12 1.09 1.10 1.06 1.02 1.03 1.06 1.06 1.11 1.23 1.29 1.28 1.30 1.38 1.38 1.47 1.63 1.69 1.58 1.37 1.32 1.32 1.34 1.39 1.58 1.81 1.95 1.83 1.68
0.94 1.07 1.22 1.28 1.29 1.31 1.27 1.22 1.25 1.19 1.18 1.19 1.18 1.18 1.20 1.21 1.18 1.17 1.25 1.32 1.29 1.24 1.26 1.37 1.39 1.47 1.50 1.41 1.21 1.00 1.14 1.25 1.28 1.29 1.36 1.51 1.59 1.51
1.04 1.20 1.34 1.33 1.34 1.34 1.26 1.21 1.22 1.19 1.16 1.17 1.19 1.18 1.18 1.24 1.25 1.22 1.23 1.30 1.30 1.24 1.23 1.25 1.28 1.27 1.28 1.28 1.18 1.00 0.86 1.08 1.23 1.24 1.22 1.27 1.27 1.32
1.20 1.31 1.32 1.31 1.32 1.29 1.24 1.22 1.25 1.23 1.19 1.20 1.17 1.17 1.17 1.26 1.29 1.26 1.22 1.25 1.21 1.14 1.11 1.14 1.15 1.15 1.22 1.33 1.29 1.12 0.98 0.93 1.05 1.13 1.19 1.28 1.25 1.21
1.16 1.18 1.16 1.15 1.17 1.18 1.19 1.22 1.28 1.26 1.25 1.24 1.18 1.16 1.18 1.22 1.23 1.23 1.20 1.18 1.17 1.13 1.07 1.08 1.11 1.16 1.26 1.33 1.30 1.20 1.12 1.07 1.04 1.07 1.09 1.11 1.10 1.05
1.10 1.11 1.10 1.07 1.04 1.09 1.13 1.15 1.19 1.21 1.18 1.14 1.11 1.09 1.08 1.13 1.12 1.09 1.10 1.08 1.09 1.11 1.15 1.16 1.17 1.21 1.24 1.31 1.36 1.33 1.21 1.18 1.19 1.14 0.99 0.92 0.85 0.78